Time,TemperatureF,DewpointF,PressureIn,WindDirection,WindDirectionDegrees,WindSpeedMPH,WindSpeedGustMPH,Humidity,HourlyPrecipIn,Conditions,Clouds,dailyrainin,SoftwareType,DateUTC
2013-04-06 00:00:00,26.6,14.2,29.93,NW,323,7.0,24.0,59,0.00,BKN,,0.00,WeatherDisplay:10.37,2013-04-06 04:00:00,
2013-04-06 00:02:00,26.6,14.2,27.28,NW,315,20.7,20.7,59,0.00,BKN,,0.00,WeatherDisplay:10.37,2013-04-06 04:02:00,
2013-04-06 00:07:00,26.3,13.9,29.94,North,360,18.4,18.4,59,0.00,BKN,,0.00,WeatherDisplay:10.37,2013-04-06 04:07:00,
2013-04-06 00:13:00,26.2,13.8,29.94,NW,315,19.6,19.6,59,0.00,BKN,,0.00,WeatherDisplay:10.37,2013-04-06 04:13:00,
2013-04-06 00:19:00,26.5,14.1,29.94,NE,45,12.7,12.7,59,0.00,BKN,,0.00,WeatherDisplay:10.37,2013-04-06 04:19:00,
2013-04-06 00:24:00,26.5,14.1,29.94,NW,315,13.8,13.8,59,0.00,BKN,,0.00,WeatherDisplay:10.37,2013-04-06 04:24:00,
2013-04-06 00:29:00,26.5,14.1,29.94,NNW,338,13.8,13.8,59,0.00,BKN,,0.00,WeatherDisplay:10.37,2013-04-06 04:29:00,
2013-04-06 00:34:00,26.8,14.0,29.94,NW,315,18.4,18.4,58,0.00,BKN,,0.00,WeatherDisplay:10.37,2013-04-06 04:34:00,
2013-04-06 00:40:00,26.8,14.4,29.94,WNW,292,15.0,15.0,59,0.00,BKN,,0.00,WeatherDisplay:10.37,2013-04-06 04:40:00,
2013-04-06 00:45:00,26.8,14.3,29.94,NW,315,21.9,21.9,59,0.00,BKN,,0.00,WeatherDisplay:10.37,2013-04-06 04:45:00,
2013-04-06 00:50:00,26.8,14.3,29.94,NW,315,16.1,16.1,59,0.00,BKN,,0.00,WeatherDisplay:10.37,2013-04-06 04:50:00,
2013-04-06 00:55:00,26.4,14.0,29.94,NE,45,20.7,20.7,59,0.00,BKN,,0.00,WeatherDisplay:10.37,2013-04-06 04:55:00,
2013-04-06 01:01:00,26.4,14.0,29.94,NNW,338,23.4,23.4,59,0.00,BKN,,0.00,WeatherDisplay:10.37,2013-04-06 05:01:00,
2013-04-06 01:06:00,26.6,14.2,29.96,NW,315,23.0,23.0,59,0.00,OVC,,0.00,WeatherDisplay:10.37,2013-04-06 05:06:00,
2013-04-06 01:11:00,26.5,12.1,29.96,NW,315,21.9,21.9,54,0.00,OVC,,0.00,WeatherDisplay:10.37,2013-04-06 05:11:00,
2013-04-06 01:17:00,26.3,13.9,29.96,NW,315,16.9,16.9,59,0.00,OVC,,0.00,WeatherDisplay:10.37,2013-04-06 05:17:00,
2013-04-06 01:22:00,26.3,11.9,29.96,WNW,292,15.0,15.0,54,0.00,OVC,,0.00,WeatherDisplay:10.37,2013-04-06 05:22:00,
2013-04-06 01:27:00,26.2,13.4,29.96,NE,45,19.6,19.6,58,0.00,OVC,,0.00,WeatherDisplay:10.37,2013-04-06 05:27:00,
2013-04-06 01:32:00,26.4,13.6,29.96,North,360,15.0,15.0,58,0.00,OVC,,0.00,WeatherDisplay:10.37,2013-04-06 05:32:00,
2013-04-06 01:37:00,26.4,12.0,29.96,NW,315,20.7,20.7,54,0.00,OVC,,0.00,WeatherDisplay:10.37,2013-04-06 05:37:00,
2013-04-06 01:42:00,26.2,11.8,29.96,North,360,17.3,17.3,54,0.00,OVC,,0.00,WeatherDisplay:10.37,2013-04-06 05:42:00,
2013-04-06 01:47:00,26.4,12.0,29.96,NW,315,16.1,16.1,54,0.00,OVC,,0.00,WeatherDisplay:10.37,2013-04-06 05:47:00,
2013-04-06 01:52:00,26.2,13.4,27.28,NW,315,28.8,28.8,58,0.00,OVC,,0.00,WeatherDisplay:10.37,2013-04-06 05:52:00,
2013-04-06 01:57:00,26.0,13.2,29.96,West,270,15.0,15.0,58,0.00,OVC,,0.00,WeatherDisplay:10.37,2013-04-06 05:57:00,
2013-04-06 02:02:00,25.9,8.0,29.98,NNW,338,19.6,19.6,46,0.00,OVC,,0.00,WeatherDisplay:10.37,2013-04-06 06:02:00,
2013-04-06 02:07:00,25.9,13.2,29.98,NW,315,25.3,25.3,58,0.00,OVC,,0.00,WeatherDisplay:10.37,2013-04-06 06:07:00,
2013-04-06 02:12:00,25.6,12.9,29.98,NW,315,18.4,18.4,58,0.00,OVC,,0.00,WeatherDisplay:10.37,2013-04-06 06:12:00,
2013-04-06 02:17:00,25.5,7.6,29.98,NNW,338,12.7,12.7,46,0.00,OVC,,0.00,WeatherDisplay:10.37,2013-04-06 06:17:00,
2013-04-06 02:22:00,25.6,8.6,27.28,NW,315,17.3,17.3,48,0.00,OVC,,0.00,WeatherDisplay:10.37,2013-04-06 06:22:00,
2013-04-06 02:27:00,25.2,8.2,29.98,NW,315,33.4,33.4,48,0.00,OVC,,0.00,WeatherDisplay:10.37,2013-04-06 06:27:00,
2013-04-06 02:32:00,25.1,8.2,29.98,NNW,338,18.4,18.4,48,0.00,OVC,,0.00,WeatherDisplay:10.37,2013-04-06 06:32:00,
2013-04-06 02:37:00,24.7,6.9,29.98,North,360,20.7,20.7,46,0.00,OVC,,0.00,WeatherDisplay:10.37,2013-04-06 06:37:00,
2013-04-06 02:42:00,24.6,7.7,29.98,NNE,22,38.0,38.0,48,0.00,OVC,,0.00,WeatherDisplay:10.37,2013-04-06 06:42:00,
2013-04-06 02:49:00,24.2,7.3,29.98,NW,315,31.1,31.1,48,0.00,OVC,,0.00,WeatherDisplay:10.37,2013-04-06 06:49:00,
2013-04-06 02:54:00,24.2,7.3,29.98,North,360,24.2,24.2,48,0.00,OVC,,0.00,WeatherDisplay:10.37,2013-04-06 06:54:00,
2013-04-06 02:59:00,24.2,7.3,29.98,NW,315,24.2,24.2,48,0.00,OVC,,0.00,WeatherDisplay:10.37,2013-04-06 06:59:00,
2013-04-06 03:05:00,24.0,7.1,30.00,WNW,292,15.0,15.0,48,0.00,OVC,,0.00,WeatherDisplay:10.37,2013-04-06 07:05:00,
2013-04-06 03:10:00,24.0,7.1,27.28,NNW,338,14.7,14.7,48,0.00,OVC,,0.00,WeatherDisplay:10.37,2013-04-06 07:10:00,
2013-04-06 03:15:00,24.1,7.2,30.00,NW,315,24.9,24.9,48,0.00,OVC,,0.00,WeatherDisplay:10.37,2013-04-06 07:15:00,
2013-04-06 03:20:00,24.2,8.2,30.00,NNW,338,16.1,16.1,50,0.00,OVC,,0.00,WeatherDisplay:10.37,2013-04-06 07:20:00,
2013-04-06 03:25:00,24.2,8.2,30.00,NNW,338,19.6,19.6,50,0.00,OVC,,0.00,WeatherDisplay:10.37,2013-04-06 07:25:00,
2013-04-06 03:30:00,24.4,7.4,30.00,WNW,292,14.7,14.7,48,0.00,OVC,,0.00,WeatherDisplay:10.37,2013-04-06 07:30:00,
2013-04-06 03:36:00,24.2,7.3,30.00,NNW,338,15.0,15.0,48,0.00,OVC,,0.00,WeatherDisplay:10.37,2013-04-06 07:36:00,
2013-04-06 03:42:00,24.1,7.2,30.00,NW,315,19.6,19.6,48,0.00,OVC,,0.00,WeatherDisplay:10.37,2013-04-06 07:42:00,
2013-04-06 03:47:00,24.0,7.1,30.00,NNW,338,26.5,26.5,48,0.00,OVC,,0.00,WeatherDisplay:10.37,2013-04-06 07:47:00,
2013-04-06 03:52:00,23.6,7.6,30.00,NW,315,16.1,16.1,50,0.00,OVC,,0.00,WeatherDisplay:10.37,2013-04-06 07:52:00,
2013-04-06 03:57:00,23.5,6.6,30.00,NW,315,29.9,29.9,48,0.00,OVC,,0.00,WeatherDisplay:10.37,2013-04-06 07:57:00,
2013-04-06 04:02:00,23.5,6.7,30.03,NW,315,17.3,17.3,48,0.00,OVC,,0.00,WeatherDisplay:10.37,2013-04-06 08:02:00,
2013-04-06 04:07:00,23.1,6.3,30.03,North,360,21.9,21.9,48,0.00,OVC,,0.00,WeatherDisplay:10.37,2013-04-06 08:07:00,
2013-04-06 04:12:00,23.1,6.3,30.03,NNW,338,20.7,20.7,48,0.00,OVC,,0.00,WeatherDisplay:10.37,2013-04-06 08:12:00,
2013-04-06 04:17:00,22.7,5.9,30.03,NW,315,28.8,28.8,48,0.00,OVC,,0.00,WeatherDisplay:10.37,2013-04-06 08:17:00,
2013-04-06 04:22:00,22.3,5.6,27.28,WNW,292,28.8,28.8,48,0.00,OVC,,0.00,WeatherDisplay:10.37,2013-04-06 08:22:00,
2013-04-06 04:27:00,22.2,5.9,30.03,North,360,23.0,23.0,49,0.00,OVC,,0.00,WeatherDisplay:10.37,2013-04-06 08:27:00,
2013-04-06 04:32:00,22.0,5.7,30.03,West,270,18.4,18.4,49,0.00,OVC,,0.00,WeatherDisplay:10.37,2013-04-06 08:32:00,
2013-04-06 04:37:00,22.0,5.7,30.03,NNW,338,19.0,19.0,49,0.00,OVC,,0.00,WeatherDisplay:10.37,2013-04-06 08:37:00,
2013-04-06 04:42:00,22.0,5.7,30.03,NW,315,17.3,17.3,49,0.00,OVC,,0.00,WeatherDisplay:10.37,2013-04-06 08:42:00,
2013-04-06 04:47:00,21.8,5.1,30.03,NNW,338,19.6,19.6,48,0.00,OVC,,0.00,WeatherDisplay:10.37,2013-04-06 08:47:00,
2013-04-06 04:52:00,21.8,5.5,30.03,NNW,338,17.3,17.3,49,0.00,OVC,,0.00,WeatherDisplay:10.37,2013-04-06 08:52:00,
2013-04-06 04:57:00,21.9,5.6,30.03,WNW,292,17.3,17.3,49,0.00,OVC,,0.00,WeatherDisplay:10.37,2013-04-06 08:57:00,
2013-04-06 05:03:00,21.8,5.1,30.08,NE,45,27.6,27.6,48,0.00,OVC,,0.00,WeatherDisplay:10.37,2013-04-06 09:03:00,
2013-04-06 05:08:00,21.5,10.5,30.08,NNW,338,23.0,23.0,62,0.00,OVC,,0.00,WeatherDisplay:10.37,2013-04-06 09:08:00,
2013-04-06 05:14:00,21.4,9.6,30.08,NW,315,23.0,23.0,60,0.00,OVC,,0.00,WeatherDisplay:10.37,2013-04-06 09:14:00,
2013-04-06 05:19:00,21.2,9.5,30.08,WNW,292,24.2,24.2,60,0.00,OVC,,0.00,WeatherDisplay:10.37,2013-04-06 09:19:00,
2013-04-06 05:24:00,20.9,9.2,30.08,NW,315,20.7,20.7,60,0.00,OVC,,0.00,WeatherDisplay:10.37,2013-04-06 09:24:00,
2013-04-06 05:29:00,20.7,9.0,30.08,NNW,338,24.2,24.2,60,0.00,OVC,,0.00,WeatherDisplay:10.37,2013-04-06 09:29:00,
2013-04-06 05:34:00,20.7,9.0,30.08,NNW,338,19.6,19.6,60,0.00,OVC,,0.00,WeatherDisplay:10.37,2013-04-06 09:34:00,
2013-04-06 05:39:00,20.6,8.9,30.08,NW,315,19.6,19.6,60,0.00,OVC,,0.00,WeatherDisplay:10.37,2013-04-06 09:39:00,
2013-04-06 05:44:00,20.6,8.9,30.08,NW,315,17.3,17.3,60,0.00,OVC,,0.00,WeatherDisplay:10.37,2013-04-06 09:44:00,
2013-04-06 05:50:00,20.2,8.5,30.08,NW,315,24.2,24.2,60,0.00,OVC,,0.00,WeatherDisplay:10.37,2013-04-06 09:50:00,
2013-04-06 05:55:00,20.0,9.1,30.08,NW,315,21.9,21.9,62,0.00,OVC,,0.00,WeatherDisplay:10.37,2013-04-06 09:55:00,
2013-04-06 06:00:00,20.1,8.4,30.08,NNW,338,15.0,15.0,60,0.00,OVC,,0.00,WeatherDisplay:10.37,2013-04-06 10:00:00,
2013-04-06 06:05:00,19.9,8.2,30.12,NW,315,16.6,16.6,60,0.00,BKN,,0.00,WeatherDisplay:10.37,2013-04-06 10:05:00,
2013-04-06 06:10:00,19.9,8.9,30.12,NW,315,19.6,19.6,62,0.00,BKN,,0.00,WeatherDisplay:10.37,2013-04-06 10:10:00,
2013-04-06 06:15:00,20.0,9.0,30.12,NNW,338,20.7,20.7,62,0.00,BKN,,0.00,WeatherDisplay:10.37,2013-04-06 10:15:00,
2013-04-06 06:20:00,19.9,8.2,30.12,WNW,292,18.4,18.4,60,0.00,BKN,,0.00,WeatherDisplay:10.37,2013-04-06 10:20:00,
2013-04-06 06:25:00,20.2,8.5,30.12,NW,315,29.9,29.9,60,0.00,BKN,,0.00,WeatherDisplay:10.37,2013-04-06 10:25:00,
2013-04-06 06:30:00,20.1,8.5,30.12,WNW,292,20.7,20.7,60,0.00,BKN,,0.00,WeatherDisplay:10.37,2013-04-06 10:30:00,
2013-04-06 06:35:00,20.0,9.0,30.12,NW,315,26.5,26.5,62,0.00,BKN,,0.00,WeatherDisplay:10.37,2013-04-06 10:35:00,
2013-04-06 06:41:00,19.9,8.2,27.28,North,360,29.9,29.9,60,0.00,BKN,,0.00,WeatherDisplay:10.37,2013-04-06 10:41:00,
2013-04-06 06:47:00,20.1,9.1,30.12,NNW,338,27.6,27.6,62,0.00,BKN,,0.00,WeatherDisplay:10.37,2013-04-06 10:47:00,
2013-04-06 06:52:00,19.7,8.1,30.12,NW,315,29.9,29.9,60,0.00,BKN,,0.00,WeatherDisplay:10.37,2013-04-06 10:52:00,
2013-04-06 06:58:00,19.6,8.7,30.12,NW,315,24.2,24.2,62,0.00,BKN,,0.00,WeatherDisplay:10.37,2013-04-06 10:58:00,
2013-04-06 07:04:00,19.9,7.1,30.16,NNE,22,24.2,24.2,57,0.00,SCT,,0.00,WeatherDisplay:10.37,2013-04-06 11:04:00,
2013-04-06 07:09:00,19.5,6.7,30.16,NW,315,29.9,29.9,57,0.00,SCT,,0.00,WeatherDisplay:10.37,2013-04-06 11:09:00,
2013-04-06 07:14:00,19.5,6.7,30.16,WNW,292,19.6,19.6,57,0.00,SCT,,0.00,WeatherDisplay:10.37,2013-04-06 11:14:00,
2013-04-06 07:19:00,19.4,-5.1,30.16,NW,315,15.8,15.8,33,0.00,SCT,,0.00,WeatherDisplay:10.37,2013-04-06 11:19:00,
2013-04-06 07:24:00,19.3,6.5,30.16,WNW,292,24.2,24.2,57,0.00,SCT,,0.00,WeatherDisplay:10.37,2013-04-06 11:24:00,
2013-04-06 07:29:00,19.5,6.7,30.16,NNW,338,33.4,33.4,57,0.00,SCT,,0.00,WeatherDisplay:10.37,2013-04-06 11:29:00,
2013-04-06 07:35:00,19.7,6.9,30.16,NW,315,35.9,35.9,57,0.00,SCT,,0.00,WeatherDisplay:10.37,2013-04-06 11:35:00,
2013-04-06 07:40:00,20.0,7.2,30.16,NW,315,27.6,27.6,57,0.00,SCT,,0.00,WeatherDisplay:10.37,2013-04-06 11:40:00,
2013-04-06 07:45:00,20.1,7.3,30.16,North,360,21.9,21.9,57,0.00,SCT,,0.00,WeatherDisplay:10.37,2013-04-06 11:45:00,
2013-04-06 07:50:00,20.4,7.6,30.16,NW,315,23.0,23.0,57,0.00,SCT,,0.00,WeatherDisplay:10.37,2013-04-06 11:50:00,
2013-04-06 07:55:00,20.6,7.8,30.16,NW,315,18.9,18.9,57,0.00,SCT,,0.00,WeatherDisplay:10.37,2013-04-06 11:55:00,
2013-04-06 08:00:00,20.8,8.0,30.16,NE,45,23.0,23.0,57,0.00,SCT,,0.00,WeatherDisplay:10.37,2013-04-06 12:00:00,
2013-04-06 08:06:00,20.8,4.6,30.20,NE,45,19.6,19.6,49,0.00,CLR,,0.00,WeatherDisplay:10.37,2013-04-06 12:06:00,
2013-04-06 08:11:00,21.0,4.8,30.20,West,270,28.8,28.8,49,0.00,CLR,,0.00,WeatherDisplay:10.37,2013-04-06 12:11:00,
2013-04-06 08:16:00,20.9,4.7,30.20,North,360,18.4,18.4,49,0.00,CLR,,0.00,WeatherDisplay:10.37,2013-04-06 12:16:00,
2013-04-06 08:22:00,20.9,4.7,30.20,WNW,292,42.6,42.6,49,0.00,CLR,,0.00,WeatherDisplay:10.37,2013-04-06 12:22:00,
2013-04-06 08:27:00,21.3,5.0,30.20,NNW,338,23.0,23.0,49,0.00,CLR,,0.00,WeatherDisplay:10.37,2013-04-06 12:27:00,
2013-04-06 08:32:00,21.5,5.2,30.20,NW,315,27.5,27.5,49,0.00,CLR,,0.00,WeatherDisplay:10.37,2013-04-06 12:32:00,
2013-04-06 08:37:00,21.7,5.5,30.20,WNW,292,18.4,18.4,49,0.00,CLR,,0.00,WeatherDisplay:10.37,2013-04-06 12:37:00,
2013-04-06 08:43:00,21.7,5.4,30.20,NW,315,35.7,35.7,49,0.00,CLR,,0.00,WeatherDisplay:10.37,2013-04-06 12:43:00,
2013-04-06 08:49:00,22.3,6.0,30.20,NE,45,26.5,26.5,49,0.00,CLR,,0.00,WeatherDisplay:10.37,2013-04-06 12:49:00,
2013-04-06 08:55:00,22.3,6.0,30.20,NW,315,20.9,20.9,49,0.00,CLR,,0.00,WeatherDisplay:10.37,2013-04-06 12:55:00,
2013-04-06 09:00:00,22.1,5.8,30.20,NW,315,16.0,36.0,49,0.00,CLR,,0.00,WeatherDisplay:10.37,2013-04-06 13:00:00,
2013-04-06 09:07:00,22.7,0.8,30.21,NNW,338,30.8,30.8,38,0.00,CLR,,0.00,WeatherDisplay:10.37,2013-04-06 13:07:00,
2013-04-06 09:12:00,22.9,1.0,30.21,NE,45,13.8,13.8,38,0.00,CLR,,0.00,WeatherDisplay:10.37,2013-04-06 13:12:00,
2013-04-06 09:17:00,22.5,0.7,30.21,WNW,292,25.3,25.3,38,0.00,CLR,,0.00,WeatherDisplay:10.37,2013-04-06 13:17:00,
2013-04-06 09:22:00,22.7,0.9,30.21,NW,315,26.5,26.5,38,0.00,CLR,,0.00,WeatherDisplay:10.37,2013-04-06 13:22:00,
2013-04-06 09:27:00,22.8,1.0,30.21,NW,315,23.5,23.5,38,0.00,CLR,,0.00,WeatherDisplay:10.37,2013-04-06 13:27:00,
2013-04-06 09:32:00,23.0,1.1,30.21,NW,315,22.2,22.2,38,0.00,CLR,,0.00,WeatherDisplay:10.37,2013-04-06 13:32:00,
2013-04-06 09:37:00,22.8,1.0,30.21,NW,315,24.2,24.2,38,0.00,CLR,,0.00,WeatherDisplay:10.37,2013-04-06 13:37:00,
2013-04-06 09:42:00,23.2,1.3,30.21,NE,45,29.9,29.9,38,0.00,CLR,,0.00,WeatherDisplay:10.37,2013-04-06 13:42:00,
2013-04-06 09:47:00,23.7,1.7,30.21,North,360,18.4,18.4,38,0.00,CLR,,0.00,WeatherDisplay:10.37,2013-04-06 13:47:00,
2013-04-06 09:54:00,23.9,1.9,30.21,NE,45,18.4,18.4,38,0.00,CLR,,0.00,WeatherDisplay:10.37,2013-04-06 13:54:00,
2013-04-06 09:59:00,23.6,1.7,30.21,NNW,338,35.7,35.7,38,0.00,CLR,,0.00,WeatherDisplay:10.37,2013-04-06 13:59:00,
2013-04-06 10:04:00,23.8,-1.2,30.23,NE,45,33.4,33.4,33,0.00,CLR,,0.00,WeatherDisplay:10.37,2013-04-06 14:04:00,
2013-04-06 10:10:00,24.1,-0.9,30.23,NW,315,18.4,18.4,33,0.00,CLR,,0.00,WeatherDisplay:10.37,2013-04-06 14:10:00,
2013-04-06 10:15:00,24.1,-0.9,30.23,NNE,22,27.6,27.6,33,0.00,CLR,,0.00,WeatherDisplay:10.37,2013-04-06 14:15:00,
2013-04-06 10:21:00,24.5,-0.5,30.23,NW,315,27.6,27.6,33,0.00,CLR,,0.00,WeatherDisplay:10.37,2013-04-06 14:21:00,
2013-04-06 10:26:00,25.0,-0.1,30.23,NNW,338,27.6,27.6,33,0.00,CLR,,0.00,WeatherDisplay:10.37,2013-04-06 14:26:00,
2013-04-06 10:32:00,25.1,0.0,27.28,NW,315,23.0,23.0,33,0.00,CLR,,0.00,WeatherDisplay:10.37,2013-04-06 14:32:00,
2013-04-06 10:37:00,25.4,0.2,30.23,NNW,338,22.4,22.4,33,0.00,CLR,,0.00,WeatherDisplay:10.37,2013-04-06 14:37:00,
2013-04-06 10:42:00,25.4,0.3,30.23,NW,315,16.1,16.1,33,0.00,CLR,,0.00,WeatherDisplay:10.37,2013-04-06 14:42:00,
2013-04-06 10:47:00,26.0,0.8,30.23,NE,45,20.7,20.7,33,0.00,CLR,,0.00,WeatherDisplay:10.37,2013-04-06 14:47:00,
2013-04-06 10:52:00,25.9,0.7,27.28,NW,315,27.2,27.2,33,0.00,CLR,,0.00,WeatherDisplay:10.37,2013-04-06 14:52:00,
2013-04-06 10:57:00,26.0,0.8,30.23,NNW,338,18.4,18.4,33,0.00,CLR,,0.00,WeatherDisplay:10.37,2013-04-06 14:57:00,
2013-04-06 11:02:00,26.3,1.1,30.24,NW,315,23.0,23.0,33,0.00,CLR,,0.00,WeatherDisplay:10.37,2013-04-06 15:02:00,
2013-04-06 11:07:00,26.5,1.2,30.24,NW,315,18.4,18.4,33,0.00,CLR,,0.00,WeatherDisplay:10.37,2013-04-06 15:07:00,
2013-04-06 11:12:00,27.5,2.1,30.24,ESE,112,19.6,19.6,33,0.00,CLR,,0.00,WeatherDisplay:10.37,2013-04-06 15:12:00,
2013-04-06 11:17:00,27.0,1.7,30.24,NNE,22,36.8,36.8,33,0.00,CLR,,0.00,WeatherDisplay:10.37,2013-04-06 15:17:00,
2013-04-06 11:22:00,26.8,1.5,27.28,North,360,18.4,18.4,33,0.00,CLR,,0.00,WeatherDisplay:10.37,2013-04-06 15:22:00,
2013-04-06 11:27:00,27.4,2.0,30.25,NNW,338,27.6,27.6,33,0.00,CLR,,0.00,WeatherDisplay:10.37,2013-04-06 15:27:00,
2013-04-06 11:32:00,28.0,2.6,30.25,NW,315,24.2,24.2,33,0.00,CLR,,0.00,WeatherDisplay:10.37,2013-04-06 15:32:00,
2013-04-06 11:37:00,27.6,2.2,30.25,NE,45,13.8,13.8,33,0.00,CLR,,0.00,WeatherDisplay:10.37,2013-04-06 15:37:00,
2013-04-06 11:42:00,27.9,2.5,30.25,NW,315,23.0,23.0,33,0.00,CLR,,0.00,WeatherDisplay:10.37,2013-04-06 15:42:00,
2013-04-06 11:47:00,28.2,2.8,30.25,NE,45,16.1,16.1,33,0.00,CLR,,0.00,WeatherDisplay:10.37,2013-04-06 15:47:00,
2013-04-06 11:52:00,28.3,2.9,30.25,East,90,27.6,27.6,33,0.00,CLR,,0.00,WeatherDisplay:10.37,2013-04-06 15:52:00,
2013-04-06 11:57:00,28.3,2.9,30.25,North,360,34.5,34.5,33,0.00,CLR,,0.00,WeatherDisplay:10.37,2013-04-06 15:57:00,
2013-04-06 12:02:00,27.8,2.4,30.25,NW,315,18.4,18.4,33,0.00,CLR,,0.00,WeatherDisplay:10.37,2013-04-06 16:02:00,
2013-04-06 12:07:00,28.5,3.0,30.25,WNW,292,12.7,12.7,33,0.00,CLR,,0.00,WeatherDisplay:10.37,2013-04-06 16:07:00,
2013-04-06 12:12:00,29.2,3.6,30.25,NW,315,15.0,15.0,33,0.00,CLR,,0.00,WeatherDisplay:10.37,2013-04-06 16:12:00,
2013-04-06 12:17:00,29.2,3.6,30.25,NNW,338,21.9,21.9,33,0.00,CLR,,0.00,WeatherDisplay:10.37,2013-04-06 16:17:00,
2013-04-06 12:22:00,29.4,3.8,27.28,NE,45,18.4,18.4,33,0.00,CLR,,0.00,WeatherDisplay:10.37,2013-04-06 16:22:00,
2013-04-06 12:27:00,30.1,19.4,30.25,NE,45,15.0,15.0,64,0.00,CLR,,0.00,WeatherDisplay:10.37,2013-04-06 16:27:00,
2013-04-06 12:32:00,29.8,5.4,30.25,WNW,292,32.2,32.2,35,0.00,CLR,,0.00,WeatherDisplay:10.37,2013-04-06 16:32:00,
2013-04-06 12:37:00,30.0,5.6,30.25,East,90,38.0,38.0,35,0.00,CLR,,0.00,WeatherDisplay:10.37,2013-04-06 16:37:00,
2013-04-06 12:42:00,30.3,4.6,30.25,WNW,292,24.2,24.2,33,0.00,CLR,,0.00,WeatherDisplay:10.37,2013-04-06 16:42:00,
2013-04-06 12:48:00,30.1,4.5,30.25,NNW,338,12.7,12.7,33,0.00,CLR,,0.00,WeatherDisplay:10.37,2013-04-06 16:48:00,
2013-04-06 12:54:00,30.8,6.3,30.25,West,270,19.6,19.6,35,0.00,CLR,,0.00,WeatherDisplay:10.37,2013-04-06 16:54:00,
2013-04-06 13:00:00,31.1,6.6,30.25,NW,316,16.0,38.0,35,0.00,CLR,,0.00,WeatherDisplay:10.37,2013-04-06 17:00:00,
2013-04-06 13:06:00,30.4,5.9,30.25,NW,315,29.9,29.9,35,0.00,CLR,,0.00,WeatherDisplay:10.37,2013-04-06 17:06:00,
2013-04-06 13:11:00,31.1,6.6,30.25,NW,315,20.2,20.2,35,0.00,CLR,,0.00,WeatherDisplay:10.37,2013-04-06 17:11:00,
2013-04-06 13:16:00,31.0,6.5,30.25,WNW,292,24.2,24.2,35,0.00,CLR,,0.00,WeatherDisplay:10.37,2013-04-06 17:16:00,
2013-04-06 13:21:00,30.7,4.9,30.25,NW,315,23.0,23.0,33,0.00,CLR,,0.00,WeatherDisplay:10.37,2013-04-06 17:21:00,
2013-04-06 13:27:00,31.4,6.9,30.25,NNW,338,12.7,12.7,35,0.00,CLR,,0.00,WeatherDisplay:10.37,2013-04-06 17:27:00,
2013-04-06 13:32:00,31.9,7.3,27.28,North,360,12.7,12.7,35,0.00,CLR,,0.00,WeatherDisplay:10.37,2013-04-06 17:32:00,
2013-04-06 13:37:00,32.1,7.4,30.25,NNW,338,20.7,20.7,35,0.00,CLR,,0.00,WeatherDisplay:10.37,2013-04-06 17:37:00,
2013-04-06 13:42:00,32.1,7.5,30.25,NW,315,15.0,15.0,35,0.00,CLR,,0.00,WeatherDisplay:10.37,2013-04-06 17:42:00,
2013-04-06 13:47:00,32.2,6.2,30.25,NNW,338,25.3,25.3,33,0.00,CLR,,0.00,WeatherDisplay:10.37,2013-04-06 17:47:00,
2013-04-06 13:52:00,32.5,7.8,27.28,WNW,292,16.1,16.1,35,0.00,CLR,,0.00,WeatherDisplay:10.37,2013-04-06 17:52:00,
2013-04-06 13:58:00,33.0,8.2,30.25,SSW,202,15.0,15.0,35,0.00,CLR,,0.00,WeatherDisplay:10.37,2013-04-06 17:58:00,
2013-04-06 14:04:00,34.0,8.5,30.24,NNW,338,15.0,15.0,34,0.00,CLR,,0.00,WeatherDisplay:10.37,2013-04-06 18:04:00,
2013-04-06 14:09:00,34.0,7.2,30.24,WSW,248,26.5,26.5,32,0.00,CLR,,0.00,WeatherDisplay:10.37,2013-04-06 18:09:00,
2013-04-06 14:15:00,33.9,2.5,30.24,NW,315,22.0,22.0,26,0.00,CLR,,0.00,WeatherDisplay:10.37,2013-04-06 18:15:00,
2013-04-06 14:20:00,33.1,1.8,30.24,NNW,338,17.3,17.3,26,0.00,CLR,,0.00,WeatherDisplay:10.37,2013-04-06 18:20:00,
2013-04-06 14:25:00,33.4,6.7,30.24,NNE,22,13.8,13.8,32,0.00,CLR,,0.00,WeatherDisplay:10.37,2013-04-06 18:25:00,
2013-04-06 14:30:00,33.7,5.5,30.24,ENE,68,17.3,17.3,30,0.00,CLR,,0.00,WeatherDisplay:10.37,2013-04-06 18:30:00,
2013-04-06 14:35:00,33.5,2.2,30.24,NW,315,17.6,17.6,26,0.00,CLR,,0.00,WeatherDisplay:10.37,2013-04-06 18:35:00,
2013-04-06 14:40:00,33.5,2.2,30.24,WNW,292,20.7,20.7,26,0.00,CLR,,0.00,WeatherDisplay:10.37,2013-04-06 18:40:00,
2013-04-06 14:45:00,34.0,5.8,30.24,WNW,292,13.5,13.5,30,0.00,CLR,,0.00,WeatherDisplay:10.37,2013-04-06 18:45:00,
2013-04-06 14:50:00,34.3,6.0,30.24,NW,315,15.5,15.5,30,0.00,CLR,,0.00,WeatherDisplay:10.37,2013-04-06 18:50:00,
2013-04-06 14:55:00,34.9,6.5,30.24,NE,45,11.5,11.5,30,0.00,CLR,,0.00,WeatherDisplay:10.37,2013-04-06 18:55:00,
2013-04-06 15:00:00,34.8,6.4,30.24,WNW,292,20.7,20.7,30,0.00,CLR,,0.00,WeatherDisplay:10.37,2013-04-06 19:00:00,
2013-04-06 15:05:00,34.5,6.2,30.23,NNE,22,14.9,14.9,30,0.00,CLR,,0.00,WeatherDisplay:10.37,2013-04-06 19:05:00,
2013-04-06 15:10:00,34.8,6.4,27.28,NNW,338,19.6,19.6,30,0.00,CLR,,0.00,WeatherDisplay:10.37,2013-04-06 19:10:00,
2013-04-06 15:15:00,34.6,6.3,30.23,NNW,338,24.2,24.2,30,0.00,CLR,,0.00,WeatherDisplay:10.37,2013-04-06 19:15:00,
2013-04-06 15:20:00,34.5,6.2,30.23,NW,315,24.2,24.2,30,0.00,CLR,,0.00,WeatherDisplay:10.37,2013-04-06 19:20:00,
2013-04-06 15:25:00,34.7,6.4,30.23,NE,45,19.6,19.6,30,0.00,CLR,,0.00,WeatherDisplay:10.37,2013-04-06 19:25:00,
2013-04-06 15:31:00,35.1,6.7,30.23,North,360,17.3,17.3,30,0.00,CLR,,0.00,WeatherDisplay:10.37,2013-04-06 19:31:00,
2013-04-06 15:36:00,35.5,7.1,30.23,WNW,292,11.5,11.5,30,0.00,CLR,,0.00,WeatherDisplay:10.37,2013-04-06 19:36:00,
2013-04-06 15:41:00,36.1,6.9,30.23,North,360,9.2,9.2,29,0.00,CLR,,0.00,WeatherDisplay:10.37,2013-04-06 19:41:00,
2013-04-06 15:47:00,35.8,7.4,30.23,NW,315,11.5,11.5,30,0.00,CLR,,0.00,WeatherDisplay:10.37,2013-04-06 19:47:00,
2013-04-06 15:52:00,36.1,7.6,30.23,West,270,15.0,15.0,30,0.00,CLR,,0.00,WeatherDisplay:10.37,2013-04-06 19:52:00,
2013-04-06 15:57:00,36.1,6.9,30.23,North,360,10.4,10.4,29,0.00,CLR,,0.00,WeatherDisplay:10.37,2013-04-06 19:57:00,
2013-04-06 16:03:00,35.9,7.4,30.22,NNW,338,16.1,16.1,30,0.00,CLR,,0.00,WeatherDisplay:10.37,2013-04-06 20:03:00,
2013-04-06 16:08:00,35.9,7.5,30.22,NW,315,10.4,10.4,30,0.00,CLR,,0.00,WeatherDisplay:10.37,2013-04-06 20:08:00,
2013-04-06 16:12:00,36.1,6.8,30.22,NW,315,20.7,20.7,29,0.00,CLR,,0.00,WeatherDisplay:10.37,2013-04-06 20:12:00,
2013-04-06 16:17:00,35.8,5.8,30.22,NW,315,12.7,12.7,28,0.00,CLR,,0.00,WeatherDisplay:10.37,2013-04-06 20:17:00,
2013-04-06 16:22:00,36.1,1.8,30.22,NW,315,13.8,13.8,23,0.00,CLR,,0.00,WeatherDisplay:10.37,2013-04-06 20:22:00,
2013-04-06 16:28:00,36.6,6.5,30.22,NW,315,12.7,12.7,28,0.00,CLR,,0.00,WeatherDisplay:10.37,2013-04-06 20:28:00,
2013-04-06 16:32:00,36.4,2.0,30.22,NW,315,13.8,13.8,23,0.00,CLR,,0.00,WeatherDisplay:10.37,2013-04-06 20:32:00,
2013-04-06 16:38:00,36.5,6.4,30.22,NNW,338,8.1,8.1,28,0.00,CLR,,0.00,WeatherDisplay:10.37,2013-04-06 20:38:00,
2013-04-06 16:43:00,36.3,2.0,30.22,NNE,22,15.0,15.0,23,0.00,CLR,,0.00,WeatherDisplay:10.37,2013-04-06 20:43:00,
2013-04-06 16:47:00,36.4,6.4,30.22,ESE,112,9.2,9.2,28,0.00,CLR,,0.00,WeatherDisplay:10.37,2013-04-06 20:47:00,
2013-04-06 16:53:00,36.8,2.4,30.22,NW,315,12.7,12.7,23,0.00,CLR,,0.00,WeatherDisplay:10.37,2013-04-06 20:53:00,
2013-04-06 16:58:00,36.6,6.5,30.22,NW,315,16.1,16.1,28,0.00,CLR,,0.00,WeatherDisplay:10.37,2013-04-06 20:58:00,
2013-04-06 17:03:00,37.1,6.9,30.23,NW,315,12.7,12.7,28,0.00,CLR,,0.00,WeatherDisplay:10.37,2013-04-06 21:03:00,
2013-04-06 17:08:00,37.4,7.2,30.23,NW,315,15.0,15.0,28,0.00,CLR,,0.00,WeatherDisplay:10.37,2013-04-06 21:08:00,
2013-04-06 17:13:00,37.1,7.0,30.23,West,270,16.2,16.2,28,0.00,CLR,,0.00,WeatherDisplay:10.37,2013-04-06 21:13:00,
2013-04-06 17:18:00,37.4,7.2,30.23,SE,135,9.2,9.2,28,0.00,CLR,,0.00,WeatherDisplay:10.37,2013-04-06 21:18:00,
2013-04-06 17:23:00,37.5,3.0,30.23,WNW,292,10.4,10.4,23,0.00,CLR,,0.00,WeatherDisplay:10.37,2013-04-06 21:23:00,
2013-04-06 17:28:00,37.3,7.1,30.23,NW,315,6.9,6.9,28,0.00,CLR,,0.00,WeatherDisplay:10.37,2013-04-06 21:28:00,
2013-04-06 17:33:00,37.2,6.3,30.23,North,360,10.4,10.4,27,0.00,CLR,,0.00,WeatherDisplay:10.37,2013-04-06 21:33:00,
2013-04-06 17:38:00,36.8,5.9,30.23,NW,315,15.0,15.0,27,0.00,CLR,,0.00,WeatherDisplay:10.37,2013-04-06 21:38:00,
2013-04-06 17:43:00,36.9,2.5,30.23,NE,45,5.8,5.8,23,0.00,CLR,,0.00,WeatherDisplay:10.37,2013-04-06 21:43:00,
2013-04-06 17:48:00,36.8,5.9,30.23,NNE,22,9.7,9.7,27,0.00,CLR,,0.00,WeatherDisplay:10.37,2013-04-06 21:48:00,
2013-04-06 17:53:00,36.4,2.0,30.23,NW,315,8.1,8.1,23,0.00,CLR,,0.00,WeatherDisplay:10.37,2013-04-06 21:53:00,
2013-04-06 17:58:00,36.2,5.3,30.23,WNW,292,9.2,9.2,27,0.00,CLR,,0.00,WeatherDisplay:10.37,2013-04-06 21:58:00,
2013-04-06 18:03:00,36.2,-0.1,30.24,NNW,338,4.6,4.6,21,0.00,CLR,,0.00,WeatherDisplay:10.37,2013-04-06 22:03:00,
2013-04-06 18:08:00,36.1,-0.1,30.24,NW,315,9.2,9.2,21,0.00,CLR,,0.00,WeatherDisplay:10.37,2013-04-06 22:08:00,
2013-04-06 18:13:00,36.0,4.4,30.24,NW,315,10.4,10.4,26,0.00,CLR,,0.00,WeatherDisplay:10.37,2013-04-06 22:13:00,
2013-04-06 18:18:00,35.5,-0.6,30.24,North,360,9.2,9.2,21,0.00,CLR,,0.00,WeatherDisplay:10.37,2013-04-06 22:18:00,
2013-04-06 18:23:00,35.3,3.8,27.28,WNW,292,3.5,3.5,26,0.00,CLR,,0.00,WeatherDisplay:10.37,2013-04-06 22:23:00,
2013-04-06 18:28:00,35.3,3.8,30.24,NW,315,5.8,5.8,26,0.00,CLR,,0.00,WeatherDisplay:10.37,2013-04-06 22:28:00,
2013-04-06 18:33:00,35.4,3.8,30.24,North,360,3.5,3.5,26,0.00,CLR,,0.00,WeatherDisplay:10.37,2013-04-06 22:33:00,
2013-04-06 18:38:00,34.9,3.4,30.24,NNE,22,5.8,5.8,26,0.00,CLR,,0.00,WeatherDisplay:10.37,2013-04-06 22:38:00,
2013-04-06 18:43:00,34.6,3.2,30.24,NW,315,4.6,4.6,26,0.00,CLR,,0.00,WeatherDisplay:10.37,2013-04-06 22:43:00,
2013-04-06 18:48:00,34.1,2.8,30.24,WNW,292,3.0,3.0,26,0.00,CLR,,0.00,WeatherDisplay:10.37,2013-04-06 22:48:00,
2013-04-06 18:53:00,33.9,-2.0,30.24,NW,315,3.5,3.5,21,0.00,CLR,,0.00,WeatherDisplay:10.37,2013-04-06 22:53:00,
2013-04-06 18:58:00,33.6,-2.3,30.24,West,270,0.0,0.0,21,0.00,CLR,,0.00,WeatherDisplay:10.37,2013-04-06 22:58:00,
2013-04-06 19:03:00,33.3,1.2,30.24,West,270,1.2,0.0,25,0.00,CLR,,0.00,WeatherDisplay:10.37,2013-04-06 23:03:00,
2013-04-06 19:08:00,33.0,0.9,30.24,West,270,3.5,3.5,25,0.00,CLR,,0.00,WeatherDisplay:10.37,2013-04-06 23:08:00,
2013-04-06 19:13:00,32.3,0.4,30.24,SW,225,0.0,0.0,25,0.00,CLR,,0.00,WeatherDisplay:10.37,2013-04-06 23:13:00,
2013-04-06 19:19:00,31.9,0.0,30.24,SSW,202,3.5,3.5,25,0.00,CLR,,0.00,WeatherDisplay:10.37,2013-04-06 23:19:00,
2013-04-06 19:25:00,30.9,-0.8,30.24,SW,225,3.5,3.5,25,0.00,CLR,,0.00,WeatherDisplay:10.37,2013-04-06 23:25:00,
2013-04-06 19:30:00,30.6,-1.1,30.24,SW,225,0.0,0.0,25,0.00,CLR,,0.00,WeatherDisplay:10.37,2013-04-06 23:30:00,
2013-04-06 19:35:00,29.8,-1.9,30.24,SSW,202,3.5,3.5,25,0.00,CLR,,0.00,WeatherDisplay:10.37,2013-04-06 23:35:00,
2013-04-06 19:40:00,29.5,-2.0,30.24,SSW,202,4.6,4.6,25,0.00,CLR,,0.00,WeatherDisplay:10.37,2013-04-06 23:40:00,
2013-04-06 19:45:00,29.6,-1.9,30.24,WSW,248,4.6,4.6,25,0.00,CLR,,0.00,WeatherDisplay:10.37,2013-04-06 23:45:00,
2013-04-06 19:50:00,29.4,-2.1,30.24,SSW,202,4.6,4.6,25,0.00,CLR,,0.00,WeatherDisplay:10.37,2013-04-06 23:50:00,
2013-04-06 19:55:00,29.4,-2.1,30.24,SSW,202,4.6,4.6,25,0.00,CLR,,0.00,WeatherDisplay:10.37,2013-04-06 23:55:00,
2013-04-06 20:00:00,29.4,-2.2,30.24,SSW,202,4.6,4.6,25,0.00,CLR,,0.00,WeatherDisplay:10.37,2013-04-07 00:00:00,
2013-04-06 20:05:00,29.0,-2.5,30.24,SW,225,3.5,3.5,25,0.00,CLR,,0.00,WeatherDisplay:10.37,2013-04-07 00:05:00,
2013-04-06 20:11:00,28.5,-2.1,27.28,SSW,202,3.5,3.5,26,0.00,CLR,,0.00,WeatherDisplay:10.37,2013-04-07 00:11:00,
2013-04-06 20:16:00,28.3,1.5,30.24,SSW,202,4.6,4.6,31,0.00,CLR,,0.00,WeatherDisplay:10.37,2013-04-07 00:16:00,
2013-04-06 20:21:00,28.4,-2.2,30.24,SSW,202,4.9,4.9,26,0.00,CLR,,0.00,WeatherDisplay:10.37,2013-04-07 00:21:00,
2013-04-06 20:26:00,28.2,1.4,30.24,South,180,3.5,3.5,31,0.00,CLR,,0.00,WeatherDisplay:10.37,2013-04-07 00:26:00,
2013-04-06 20:32:00,28.0,-2.5,27.28,South,180,5.0,5.0,26,0.00,CLR,,0.00,WeatherDisplay:10.37,2013-04-07 00:32:00,
2013-04-06 20:37:00,27.9,-2.6,30.24,South,180,4.6,4.6,26,0.00,CLR,,0.00,WeatherDisplay:10.37,2013-04-07 00:37:00,
2013-04-06 20:42:00,28.0,1.2,30.24,SW,225,5.8,5.8,31,0.00,CLR,,0.00,WeatherDisplay:10.37,2013-04-07 00:42:00,
2013-04-06 20:47:00,28.1,1.3,30.24,South,180,4.6,4.6,31,0.00,CLR,,0.00,WeatherDisplay:10.37,2013-04-07 00:47:00,
2013-04-06 20:53:00,27.7,0.9,30.24,SSE,158,3.5,3.5,31,0.00,CLR,,0.00,WeatherDisplay:10.37,2013-04-07 00:53:00,
2013-04-06 20:58:00,28.1,1.3,30.24,South,180,4.6,4.6,31,0.00,CLR,,0.00,WeatherDisplay:10.37,2013-04-07 00:58:00,
2013-04-06 21:03:00,27.8,7.7,30.26,SSW,202,4.7,4.7,42,0.00,CLR,,0.00,WeatherDisplay:10.37,2013-04-07 01:03:00,
2013-04-06 21:08:00,27.7,-2.8,30.26,SW,225,4.6,4.6,26,0.00,CLR,,0.00,WeatherDisplay:10.37,2013-04-07 01:08:00,
2013-04-06 21:13:00,27.4,-3.1,30.26,SSW,202,3.5,3.5,26,0.00,CLR,,0.00,WeatherDisplay:10.37,2013-04-07 01:13:00,
2013-04-06 21:19:00,27.2,-3.3,30.26,SW,225,4.6,4.6,26,0.00,CLR,,0.00,WeatherDisplay:10.37,2013-04-07 01:19:00,
2013-04-06 21:25:00,27.4,6.2,30.26,SW,225,4.6,4.6,40,0.00,CLR,,0.00,WeatherDisplay:10.37,2013-04-07 01:25:00,
2013-04-06 21:30:00,27.5,6.3,30.26,SW,225,4.8,4.8,40,0.00,CLR,,0.00,WeatherDisplay:10.37,2013-04-07 01:30:00,
2013-04-06 21:35:00,27.3,6.1,30.26,SSW,202,3.5,3.5,40,0.00,CLR,,0.00,WeatherDisplay:10.37,2013-04-07 01:35:00,
2013-04-06 21:41:00,27.2,6.0,27.28,WSW,248,5.8,5.8,40,0.00,CLR,,0.00,WeatherDisplay:10.37,2013-04-07 01:41:00,
2013-04-06 21:46:00,27.6,7.4,30.26,SSW,202,5.8,5.8,42,0.00,CLR,,0.00,WeatherDisplay:10.37,2013-04-07 01:46:00,
2013-04-06 21:51:00,27.7,6.5,30.26,SW,225,5.8,5.8,40,0.00,CLR,,0.00,WeatherDisplay:10.37,2013-04-07 01:51:00,
2013-04-06 21:56:00,27.7,6.5,30.26,SSW,202,4.6,4.6,40,0.00,CLR,,0.00,WeatherDisplay:10.37,2013-04-07 01:56:00,
2013-04-06 22:01:00,27.6,6.4,30.26,South,180,4.6,4.6,40,0.00,CLR,,0.00,WeatherDisplay:10.37,2013-04-07 02:01:00,
2013-04-06 22:06:00,27.0,5.8,30.26,WSW,248,1.2,0.0,40,0.00,CLR,,0.00,WeatherDisplay:10.37,2013-04-07 02:06:00,
2013-04-06 22:12:00,26.3,5.2,30.26,West,270,0.0,0.0,40,0.00,CLR,,0.00,WeatherDisplay:10.37,2013-04-07 02:12:00,
2013-04-06 22:17:00,26.0,4.9,30.26,SSW,202,1.6,1.6,40,0.00,CLR,,0.00,WeatherDisplay:10.37,2013-04-07 02:17:00,
2013-04-06 22:22:00,25.7,5.7,30.26,South,180,3.5,3.5,42,0.00,CLR,,0.00,WeatherDisplay:10.37,2013-04-07 02:22:00,
2013-04-06 22:27:00,25.4,4.4,30.26,SSW,202,3.5,3.5,40,0.00,CLR,,0.00,WeatherDisplay:10.37,2013-04-07 02:27:00,
2013-04-06 22:33:00,25.4,4.4,30.26,WSW,248,3.5,3.5,40,0.00,CLR,,0.00,WeatherDisplay:10.37,2013-04-07 02:33:00,
2013-04-06 22:38:00,25.5,4.5,30.26,SW,225,4.6,4.6,40,0.00,CLR,,0.00,WeatherDisplay:10.37,2013-04-07 02:38:00,
2013-04-06 22:44:00,25.7,4.7,30.26,SSW,202,4.6,4.6,40,0.00,CLR,,0.00,WeatherDisplay:10.37,2013-04-07 02:44:00,
2013-04-06 22:50:00,26.0,4.9,30.26,SSW,202,4.6,4.6,40,0.00,CLR,,0.00,WeatherDisplay:10.37,2013-04-07 02:50:00,
2013-04-06 22:55:00,26.1,5.0,30.26,SSW,202,4.6,4.6,40,0.00,CLR,,0.00,WeatherDisplay:10.37,2013-04-07 02:55:00,
2013-04-06 23:00:00,25.9,4.9,30.26,SSW,198,3.0,6.0,40,0.00,CLR,,0.00,WeatherDisplay:10.37,2013-04-07 03:00:00,
2013-04-06 23:06:00,26.0,6.0,30.27,SSW,202,6.9,6.9,42,0.00,OVC,,0.00,WeatherDisplay:10.37,2013-04-07 03:06:00,
2013-04-06 23:11:00,26.0,6.0,30.27,South,180,6.9,6.9,42,0.00,OVC,,0.00,WeatherDisplay:10.37,2013-04-07 03:11:00,
2013-04-06 23:16:00,26.1,5.0,30.27,SW,225,5.8,5.8,40,0.00,OVC,,0.00,WeatherDisplay:10.37,2013-04-07 03:16:00,
2013-04-06 23:22:00,26.6,6.6,30.27,South,180,5.8,5.8,42,0.00,OVC,,0.00,WeatherDisplay:10.37,2013-04-07 03:22:00,
2013-04-06 23:27:00,26.5,6.5,30.27,SSW,202,3.5,3.5,42,0.00,OVC,,0.00,WeatherDisplay:10.37,2013-04-07 03:27:00,
2013-04-06 23:32:00,26.3,6.3,30.27,SW,225,4.6,4.6,42,0.00,OVC,,0.00,WeatherDisplay:10.37,2013-04-07 03:32:00,
2013-04-06 23:37:00,26.1,5.0,30.27,West,270,3.5,3.5,40,0.00,OVC,,0.00,WeatherDisplay:10.37,2013-04-07 03:37:00,
2013-04-06 23:42:00,26.0,5.0,30.27,SSW,202,1.2,1.2,40,0.00,OVC,,0.00,WeatherDisplay:10.37,2013-04-07 03:42:00,
2013-04-06 23:47:00,26.0,5.0,30.27,SSW,202,3.5,3.5,40,0.00,OVC,,0.00,WeatherDisplay:10.37,2013-04-07 03:47:00,
2013-04-06 23:52:00,25.9,4.9,30.27,SW,225,3.5,3.5,40,0.00,OVC,,0.00,WeatherDisplay:10.37,2013-04-07 03:52:00,
2013-04-06 23:58:00,26.0,5.0,30.27,SSW,202,4.6,4.6,40,0.00,OVC,,0.00,WeatherDisplay:10.37,2013-04-07 03:58:00,